This is the latest recevied weather packets stored in our database for station/object M7PDA-1. If no packets are shown the sender has not sent any weather packets the latest 10 day(s).
| Time | Temp. | Humidity | Pressure | Rain* | Wind** | Luminosity | Snow |
|---|---|---|---|---|---|---|---|
| 1787749044 | 23.89° C | 52% | 1015.7 hPa | - | - | - | - |
| 1787748143 | 23.89° C | 52% | 1015.9 hPa | - | - | - | - |
| 1787747243 | 23.89° C | 53% | 1016.2 hPa | - | - | - | - |
| 1787746342 | 22.22° C | 58% | 1016.6 hPa | - | - | - | - |
| 1787745441 | 21.11° C | 60% | 1016.8 hPa | - | - | - | - |
| 1787744540 | 20.56° C | 62% | 1017 hPa | - | - | - | - |
| 1787743639 | 19.44° C | 64% | 1017.2 hPa | - | - | - | - |
| 1787742739 | 18.89° C | 64% | 1017.5 hPa | - | - | - | - |
| 1787741838 | 18.89° C | 64% | 1017.6 hPa | - | - | - | - |
| 1787740937 | 18.33° C | 65% | 1017.5 hPa | - | - | - | - |
| 1787740036 | 18.33° C | 65% | 1017.5 hPa | - | - | - | - |
| 1787739135 | 18.33° C | 65% | 1017.6 hPa | - | - | - | - |
| 1787738235 | 17.78° C | 65% | 1017.8 hPa | - | - | - | - |
| 1787737334 | 17.78° C | 64% | 1017.8 hPa | - | - | - | - |
| 1787736433 | 17.78° C | 64% | 1017.8 hPa | - | - | - | - |
| 1787735532 | 18.33° C | 63% | 1017.8 hPa | - | - | - | - |
| 1787734632 | 17.78° C | 64% | 1017.5 hPa | - | - | - | - |
| 1787733731 | 17.78° C | 64% | 1017.5 hPa | - | - | - | - |
| 1787732830 | 17.78° C | 64% | 1017.4 hPa | - | - | - | - |
| 1787731929 | 17.78° C | 64% | 1017.3 hPa | - | - | - | - |
| 1787731029 | 17.22° C | 65% | 1017.2 hPa | - | - | - | - |
| 1787730128 | 17.22° C | 65% | 1017.3 hPa | - | - | - | - |
| 1787729227 | 16.67° C | 66% | 1017.2 hPa | - | - | - | - |
| 1787728326 | 16.67° C | 66% | 1017.1 hPa | - | - | - | - |
| 1787727425 | 16.67° C | 66% | 1016.9 hPa | - | - | - | - |
* Rain since midnight (hover to see other rain measurements)
** Current wind speed in m/s (hover to see current wind gust speed)